EW9394 Weather Reports


Display with metric or nautical units.
time (UTC)temp
F
wind
direction
speed
MPH
gust
MPH
rain 1hr
in
rain 24hr
in
rain mn
in
humidity
%
barometer
mb
20260504050305 69 163 3.0 3.0 0.00 0.00 0.00 56 1017.4
20260504045757 69 184 3.0 3.0 0.00 0.00 0.00 56 1017.2
20260504045256 69 166 4.0 5.0 0.00 0.00 0.00 56 1017.4
20260504044754 69 204 2.0 2.0 0.00 0.00 0.00 56 1017.6
20260504044252 69 178 2.0 3.0 0.00 0.00 0.00 55 1017.6
20260504043748 69 184 3.0 3.0 0.00 0.00 0.00 55 1017.4
20260504043245 69 183 3.0 3.0 0.00 0.00 0.00 55 1017.4
20260504042743 69 175 5.0 7.0 0.00 0.00 0.00 55 1017.5
20260504042239 69 178 3.0 3.0 0.00 0.00 0.00 55 1017.6
20260504041736 70 181 3.0 3.0 0.00 0.00 0.00 54 1017.7
20260504041232 70 179 3.0 3.0 0.00 0.00 0.00 54 1017.6
20260504040728 70 137 4.0 5.0 0.00 0.00 0.00 54 1017.5
20260504040226 70 168 4.0 5.0 0.00 0.00 0.00 53 1017.6
20260504035722 70 198 6.0 8.0 0.00 0.00 0.00 53 1017.3
20260504035219 70 173 2.0 2.0 0.00 0.00 0.00 53 1017.6
20260504034716 71 182 5.0 7.0 0.00 0.00 0.00 52 1017.7
20260504034214 71 170 6.0 9.0 0.00 0.00 0.00 52 1017.4
20260504033711 71 190 1.0 1.0 0.00 0.00 0.00 51 1017.4
20260504033208 71 172 7.0 8.0 0.00 0.00 0.00 50 1017.5
20260504032705 71 171 6.0 7.0 0.00 0.00 0.00 50 1017.4
20260504032202 71 191 1.0 1.0 0.00 0.00 0.00 51 1017.5
20260504031659 71 196 4.0 7.0 0.00 0.00 0.00 50 1017.2
20260504031155 71 194 3.0 7.0 0.00 0.00 0.00 50 1017.4
20260504030652 71 177 2.0 3.0 0.00 0.00 0.00 50 1017.3
20260504030149 71 194 3.0 3.0 0.00 0.00 0.00 50 1017.3
20260504025646 72 180 2.0 2.0 0.00 0.00 0.00 49 1017.2
20260504025142 72 182 3.0 3.0 0.00 0.00 0.00 49 1017.4
20260504024640 72 163 4.0 5.0 0.00 0.00 0.00 49 1017.3
20260504024136 72 179 3.0 3.0 0.00 0.00 0.00 48 1017.4
20260504023633 72 205 3.0 3.0 0.00 0.00 0.00 48 1017.4
20260504023129 72 179 2.0 2.0 0.00 0.00 0.00 48 1017.4
20260504022626 73 179 3.0 3.0 0.00 0.00 0.00 48 1017.6
20260504022121 73 167 3.0 6.0 0.00 0.00 0.00 47 1017.6
20260504021620 73 195 2.0 3.0 0.00 0.00 0.00 47 1017.4
20260504021116 73 185 2.0 2.0 0.00 0.00 0.00 47 1017.3
20260504020613 73 162 3.0 3.0 0.00 0.00 0.00 46 1017.2
20260504020109 73 194 4.0 6.0 0.00 0.00 0.00 45 1017.1
20260504015606 74 148 2.0 3.0 0.00 0.00 0.00 45 1017.2
20260504015102 74 189 2.0 3.0 0.00 0.00 0.00 45 1017.0
20260504014558 74 160 2.0 3.0 0.00 0.00 0.00 45 1017.3
20260504014055 74 194 5.0 7.0 0.00 0.00 0.00 45 1017.0
20260504013553 75 197 3.0 7.0 0.00 0.00 0.00 44 1017.2
20260504013050 75 176 4.0 6.0 0.00 0.00 0.00 44 1017.1
20260504012547 75 181 3.0 5.0 0.00 0.00 0.00 44 1017.0
20260504012045 75 177 5.0 6.0 0.00 0.00 0.00 43 1017.1
20260504011541 75 185 6.0 8.0 0.00 0.00 0.00 43 1017.1
20260504011037 75 205 3.0 6.0 0.00 0.00 0.00 42 1017.0
20260504010533 76 180 3.0 3.0 0.00 0.00 0.00 42 1017.0
20260504010030 76 201 6.0 7.0 0.00 0.00 0.00 41 1016.9
20260504005526 76 181 6.0 8.0 0.00 0.00 0.00 40 1016.9
20260504005024 76 176 4.0 5.0 0.00 0.00 0.00 40 1017.0
20260504004522 76 197 4.0 6.0 0.00 0.00 0.00 40 1017.0
20260504004019 77 179 2.0 3.0 0.00 0.00 0.00 40 1016.8
20260504003515 77 143 5.0 7.0 0.00 0.00 0.00 40 1016.9
20260504003012 78 174 3.0 5.0 0.00 0.00 0.00 39 1016.8
20260504002509 78 188 2.0 2.0 0.00 0.00 0.00 39 1017.0
20260504002006 78 167 2.0 2.0 0.00 0.00 0.00 39 1016.8
20260504001503 78 144 4.0 5.0 0.00 0.00 0.00 39 1017.0
20260504000959 78 174 3.0 5.0 0.00 0.00 0.00 39 1017.2
20260504000457 78 163 6.0 8.0 0.00 0.00 0.00 39 1017.0
20260503235954 79 211 4.0 6.0 0.00 0.00 0.00 38 1017.0
20260503235452 79 192 4.0 5.0 0.00 0.00 0.00 37 1016.9
20260503234949 79 156 7.0 9.0 0.00 0.00 0.00 37 1017.0
20260503234446 80 184 6.0 7.0 0.00 0.00 0.00 37 1017.1
20260503233944 80 190 2.0 3.0 0.00 0.00 0.00 37 1017.0
20260503233440 79 201 2.0 3.0 0.00 0.00 0.00 37 1017.1
20260503232937 80 189 8.0 10.0 0.00 0.00 0.00 37 1017.5
20260503232434 80 190 0.0 1.0 0.00 0.00 0.00 38 1017.2
20260503231932 80 210 4.0 6.0 0.00 0.00 0.00 37 1017.3
20260503231429 80 193 1.0 2.0 0.00 0.00 0.00 37 1017.4
20260503230925 80 196 8.0 13.0 0.00 0.00 0.00 35 1017.2
20260503230422 81 213 8.0 9.0 0.00 0.00 0.00 35 1017.2
20260503225920 81 195 5.0 7.0 0.00 0.00 0.00 36 1017.2
20260503225416 82 152 7.0 13.0 0.00 0.00 0.00 36 1017.2
20260503224912 82 155 4.0 7.0 0.00 0.00 0.00 35 1017.5
20260503224409 82 180 3.0 5.0 0.00 0.00 0.00 35 1017.1
20260503223907 82 201 2.0 5.0 0.00 0.00 0.00 34 1017.3
20260503223405 82 190 4.0 6.0 0.00 0.00 0.00 33 1017.5
20260503222859 81 204 3.0 5.0 0.00 0.00 0.00 33 1017.6
20260503222358 82 176 6.0 10.0 0.00 0.00 0.00 33 1017.5
20260503221856 81 225 6.0 10.0 0.00 0.00 0.00 34 1017.6
20260503221355 82 207 2.0 3.0 0.00 0.00 0.00 34 1017.7
20260503220850 82 189 2.0 2.0 0.00 0.00 0.00 34 1017.7
20260503220347 83 200 2.0 3.0 0.00 0.00 0.00 34 1017.7
20260503215844 83 160 4.0 6.0 0.00 0.00 0.00 33 1017.8
20260503215341 83 183 8.0 9.0 0.00 0.00 0.00 33 1017.6
20260503214839 82 153 0.0 1.0 0.00 0.00 0.00 35 1017.8
20260503214336 83 187 6.0 9.0 0.00 0.00 0.00 34 1018.1
20260503213833 83 221 4.0 7.0 0.00 0.00 0.00 34 1018.1
20260503213331 82 123 3.0 3.0 0.00 0.00 0.00 33 1018.1
20260503212827 82 201 6.0 10.0 0.00 0.00 0.00 34 1018.1
20260503212326 84 197 3.0 3.0 0.00 0.00 0.00 33 1018.1
20260503211823 84 209 1.0 1.0 0.00 0.00 0.00 34 1018.5
20260503211319 84 222 2.0 2.0 0.00 0.00 0.00 35 1018.3
20260503210819 83 180 7.0 8.0 0.00 0.00 0.00 32 1018.3
20260503210317 83 146 6.0 7.0 0.00 0.00 0.00 32 1018.5
20260503205812 83 171 3.0 3.0 0.00 0.00 0.00 33 1018.6
20260503205309 83 145 1.0 2.0 0.00 0.00 0.00 33 1018.8
20260503204805 84 178 2.0 3.0 0.00 0.00 0.00 33 1018.9
20260503204303 84 174 3.0 3.0 0.00 0.00 0.00 31 1018.8
20260503203800 83 174 3.0 3.0 0.00 0.00 0.00 33 1018.9
20260503203257 84 166 2.0 5.0 0.00 0.00 0.00 32 1019.2
20260503202754 84 170 3.0 6.0 0.00 0.00 0.00 31 1019.2
20260503202252 84 222 2.0 2.0 0.00 0.00 0.00 33 1019.4
20260503201750 84 187 2.0 2.0 0.00 0.00 0.00 34 1019.3
20260503201247 84 144 3.0 5.0 0.00 0.00 0.00 33 1019.5
20260503200744 84 177 1.0 3.0 0.00 0.00 0.00 35 1019.6
20260503200240 83 218 1.0 2.0 0.00 0.00 0.00 34 1019.7
20260503195737 84 254 3.0 6.0 0.00 0.00 0.00 34 1019.8
20260503195233 83 115 3.0 5.0 0.00 0.00 0.00 34 1019.8
20260503194732 84 232 1.0 2.0 0.00 0.00 0.00 34 1020.1
20260503194227 83 204 1.0 2.0 0.00 0.00 0.00 33 1019.9
20260503193723 83 213 0.0 1.0 0.00 0.00 0.00 36 1020.1
20260503193219 83 153 3.0 6.0 0.00 0.00 0.00 34 1020.3
20260503192715 82 134 2.0 3.0 0.00 0.00 0.00 34 1020.2
20260503192210 83 186 2.0 2.0 0.00 0.00 0.00 35 1020.5
20260503191708 83 230 1.0 2.0 0.00 0.00 0.00 36 1020.5
20260503191205 83 204 2.0 3.0 0.00 0.00 0.00 37 1020.5
20260503190701 83 230 1.0 2.0 0.00 0.00 0.00 37 1020.5
20260503190158 82 206 3.0 6.0 0.00 0.00 0.00 38 1020.5
20260503185655 84 201 1.0 1.0 0.00 0.00 0.00 37 1020.6
20260503185150 83 243 2.0 2.0 0.00 0.00 0.00 37 1020.6
20260503184645 82 177 4.0 5.0 0.00 0.00 0.00 39 1020.7
20260503184142 83 181 3.0 6.0 0.00 0.00 0.00 36 1020.7
20260503183638 83 199 3.0 3.0 0.00 0.00 0.00 36 1020.8
20260503183136 83 193 4.0 6.0 0.00 0.00 0.00 36 1020.8
20260503182634 82 181 1.0 2.0 0.00 0.00 0.00 37 1021.2
20260503182132 83 202 2.0 2.0 0.00 0.00 0.00 38 1021.2
20260503181629 83 251 4.0 5.0 0.00 0.00 0.00 37 1021.4
20260503181125 82 268 1.0 2.0 0.00 0.00 0.00 38 1021.3
20260503180622 82 198 4.0 7.0 0.00 0.00 0.00 39 1021.5
20260503180120 81 219 4.0 6.0 0.00 0.00 0.00 39 1021.6
20260503175617 82 161 4.0 5.0 0.00 0.00 0.00 38 1021.7
20260503175114 80 199 4.0 6.0 0.00 0.00 0.00 40 1021.7
20260503174611 81 272 3.0 3.0 0.00 0.00 0.00 39 1022.0
20260503174108 81 225 3.0 5.0 0.00 0.00 0.00 43 1022.0
20260503173603 82 190 1.0 2.0 0.00 0.00 0.00 40 1022.1
20260503173059 81 122 3.0 5.0 0.00 0.00 0.00 38 1022.2
20260503172556 81 200 1.0 1.0 0.00 0.00 0.00 42 1022.0
20260503172054 81 171 1.0 2.0 0.00 0.00 0.00 43 1022.2
20260503171550 80 162 3.0 7.0 0.00 0.00 0.00 43 1022.5
20260503171048 80 189 3.0 3.0 0.00 0.00 0.00 44 1022.4
20260503170544 80 219 2.0 2.0 0.00 0.00 0.00 45 1022.3
20260503150937 74 259 1.0 2.0 0.00 0.00 0.00 50 1022.6
20260503150433 73 169 2.0 2.0 0.00 0.00 0.00 50 1022.7
20260503131326 62 198 0.0 1.0 0.00 0.00 0.00 70 1022.5
20260503130824 62 187 0.0 1.0 0.00 0.00 0.00 70 1022.7
20260503130321 62 196 1.0 1.0 0.00 0.00 0.00 72 1022.5
20260503110714 53 206 0.0 0.0 0.00 0.00 0.00 83 1021.8
20260503110212 53 206 0.0 0.0 0.00 0.00 0.00 83 1021.9
20260503100132 55 206 0.0 0.0 0.00 0.00 0.00 78 1021.8
20260503081521 60 197 0.0 0.0 0.00 0.00 0.00 64 1021.6
20260503081019 60 198 0.0 1.0 0.00 0.00 0.00 64 1021.6
20260503080515 61 195 0.0 0.0 0.00 0.00 0.00 64 1021.7
20260503072449 60 186 0.0 0.0 0.00 0.00 0.00 64 1021.5
20260503071945 61 197 0.0 0.0 0.00 0.00 0.00 64 1021.7
20260503071442 61 196 0.0 0.0 0.00 0.00 0.00 63 1021.8
20260503070938 61 197 1.0 1.0 0.00 0.00 0.00 62 1021.6
20260503070436 61 199 1.0 1.0 0.00 0.00 0.00 62 1021.7